GFSMA_850_spd_021.txt.gz
Wind_Speed
3 3 3 5 6 4 7 7 8 8 10 6 5 7 8 6 6 7 7 6 6 8 3 4 7 6 8 8 10 8 8 8 9 10 9 9 8 8 6 6 6 5 5
7 6 3 2 1 5 7 11 10 8 5 6 6 6 5 6 1 5 4 2 4 3 4 2 3 7 9 7 9 9 8 8 8 10 11 10 9 9 8 7 6 6 6
6 10 9 3 2 4 6 9 7 3 3 6 6 3 5 5 3 6 6 3 4 3 3 2 1 5 5 10 8 8 10 10 8 9 10 10 9 10 9 9 7 7 7
12 8 6 4 5 7 7 12 9 2 3 4 5 2 4 2 1 4 3 2 2 2 5 4 1 2 3 5 7 10 9 11 11 10 9 9 10 10 11 10 10 9 7
9 8 3 5 7 10 11 10 2 1 4 7 5 5 2 4 3 4 6 5 2 2 1 2 2 3 3 6 6 8 11 12 12 12 13 11 12 12 11 11 11 11 10
12 10 6 11 8 9 9 4 3 4 7 5 4 2 2 4 3 2 6 7 5 8 8 4 2 4 3 5 6 7 8 10 13 14 12 13 13 13 13 14 14 14 14
14 12 11 11 5 6 3 4 7 10 3 3 6 2 8 1 6 6 8 6 3 4 2 3 3 5 3 2 3 5 7 8 9 11 12 13 14 15 16 17 16 15 15
13 12 8 11 8 8 7 7 6 5 5 3 6 3 3 8 6 7 8 3 7 5 2 5 6 8 6 2 2 4 5 7 9 10 11 11 14 15 16 16 17 18 18
17 10 11 10 10 13 10 7 4 10 8 5 7 4 4 3 7 8 6 1 3 3 7 3 4 8 4 4 5 5 4 4 6 8 10 11 13 14 16 16 17 18 19
13 11 14 11 11 12 11 8 4 7 9 7 2 4 4 1 3 6 8 4 1 1 2 2 4 6 6 8 8 7 6 5 5 5 6 8 10 12 13 15 17 19 19
16 10 12 12 15 13 12 10 6 8 15 11 7 6 3 3 4 2 8 8 5 7 5 4 4 6 4 8 11 10 10 10 10 10 10 9 9 9 10 11 13 15 18
17 11 16 15 14 14 17 12 10 9 13 14 12 9 8 2 1 2 2 1 6 9 11 7 7 8 8 8 11 12 12 13 13 15 16 15 14 13 13 13 12 12 13
18 18 20 19 15 15 17 14 11 12 16 16 16 13 13 9 6 2 4 5 6 3 8 7 12 10 12 13 14 12 14 14 14 18 21 22 17 17 17 17 16 16 16
20 18 17 19 15 16 17 15 13 12 14 18 10 14 17 14 11 7 7 9 10 11 10 6 6 9 11 14 13 13 14 16 17 22 24 22 16 14 15 17 19 20 20
21 16 17 16 15 16 19 17 14 14 14 13 12 15 20 19 14 10 8 7 8 12 10 2 5 4 8 10 11 13 16 18 22 22 21 21 16 15 18 19 19 18 20
24 22 24 22 21 19 20 20 18 17 15 13 10 12 17 19 21 15 12 11 8 7 10 8 5 5 5 10 13 17 18 18 19 19 19 18 18 18 19 21 20 18 17
28 30 26 27 26 25 23 23 21 20 19 17 16 16 14 15 16 17 17 14 12 12 10 11 13 14 14 13 15 18 21 22 20 22 21 20 23 23 23 25 26 22 21
34 32 33 31 29 28 25 25 23 24 21 18 18 20 21 19 15 15 18 18 14 13 15 17 18 17 15 16 19 19 21 19 23 21 20 23 25 24 24 25 25 26 25
40 38 37 38 36 32 30 28 25 25 24 19 18 20 21 24 22 19 18 17 17 16 15 17 19 18 17 16 18 20 24 24 19 18 23 27 26 25 26 28 22 21 22
41 42 42 40 39 37 35 31 27 27 29 26 25 24 24 22 20 19 17 19 16 19 17 19 19 18 19 18 23 22 23 24 29 29 25 23 23 26 31 31 31 29 28
47 43 42 42 42 39 38 35 35 32 33 26 22 23 25 22 19 18 18 21 20 19 18 19 23 26 26 27 26 27 29 31 29 25 27 28 31 31 30 33 35 36 37
44 45 44 43 42 42 40 36 37 34 33 29 22 21 25 25 22 23 21 24 21 19 15 22 26 29 28 26 25 26 29 27 28 28 32 31 27 22 21 18 16 15 17
40 40 40 40 41 39 37 36 37 35 33 33 23 22 23 23 26 25 22 26 23 17 20 19 26 23 24 21 20 24 23 25 29 27 24 27 23 24 24 25 23 21 20
38 38 37 38 37 36 32 32 33 34 32 34 25 21 22 24 24 21 23 23 18 24 20 24 23 24 22 22 22 25 26 27 29 24 24 32 28 27 26 27 28 32 37
37 37 36 37 35 33 32 29 30 31 32 32 26 22 22 25 25 21 20 22 23 25 23 22 21 22 23 23 23 24 26 29 32 30 28 28 25 28 33 37 32 30 31
36 35 35 34 30 27 27 27 22 26 29 31 27 27 24 26 26 20 21 21 22 24 22 18 20 22 22 22 23 20 21 28 28 27 23 25 26 29 36 36 35 36 32

GFSMA_850_spd_024.txt.gz
Wind_Speed
2 1 3 2 3 1 2 4 5 4 4 6 7 3 7 5 2 7 7 4 3 3 3 8 10 8 10 11 11 10 9 9 10 11 10 10 9 8 8 7 6 6 6
4 6 3 2 2 2 3 6 5 2 6 3 2 2 2 1 3 5 5 1 0 3 2 4 6 9 8 9 11 11 10 9 9 10 12 9 9 9 9 8 7 8 8
6 3 7 6 5 2 5 5 7 2 4 3 1 0 2 2 3 2 3 4 1 2 2 1 4 5 7 11 9 11 11 9 8 9 11 12 12 11 10 9 8 8 8
6 8 5 7 10 6 6 7 10 7 8 4 3 3 4 3 3 2 2 1 2 2 1 3 2 2 3 7 10 12 9 9 12 10 10 12 12 11 11 11 11 10 9
9 6 4 7 8 8 7 8 5 3 2 7 3 5 5 6 6 5 4 6 4 1 2 1 1 2 4 7 8 10 12 12 13 14 14 11 11 11 10 11 11 12 12
11 10 8 8 10 8 8 4 4 2 1 4 7 7 6 3 6 3 7 4 3 5 6 3 2 2 4 5 7 8 9 11 14 13 13 13 13 12 13 13 13 14 13
13 12 10 9 9 6 3 5 3 6 7 3 4 4 6 3 7 4 8 5 2 3 1 2 2 2 2 2 3 5 8 10 11 11 12 14 14 15 15 15 15 15 14
14 12 10 9 11 11 8 7 7 3 9 5 2 7 8 8 7 11 8 1 1 2 3 5 4 7 7 5 1 3 4 6 8 8 9 10 12 14 15 15 15 16 17
13 13 11 11 13 15 13 10 6 9 10 6 6 5 5 5 11 11 6 4 3 6 4 4 6 6 4 1 3 4 2 2 3 6 8 10 12 13 14 14 15 14 16
16 14 13 14 14 16 14 10 7 12 12 11 10 6 6 8 7 9 11 7 4 1 2 3 3 9 7 8 8 6 6 5 4 4 5 7 8 10 12 14 16 16 18
20 18 15 17 19 16 13 11 8 11 15 13 11 12 14 11 8 11 12 11 7 7 6 4 6 3 6 5 7 8 8 7 6 7 8 8 10 10 10 10 11 13 15
21 20 16 16 13 15 13 12 10 10 15 14 13 13 11 15 12 9 8 7 4 7 12 9 9 8 6 6 6 7 9 9 7 11 15 17 16 12 11 12 12 12 12
24 23 19 16 16 16 14 13 12 13 15 18 15 13 12 11 7 8 8 7 5 5 7 12 15 15 11 12 10 9 8 10 11 12 16 17 16 12 11 11 12 14 14
24 22 20 18 18 16 16 16 14 13 14 17 18 18 15 14 13 11 10 9 10 8 8 8 7 14 14 13 14 12 11 12 14 16 16 13 14 11 11 12 11 12 13
24 22 19 18 19 18 17 17 16 14 14 14 17 18 18 17 16 16 13 11 11 11 12 8 6 6 8 10 13 14 13 16 17 15 13 12 13 12 13 14 15 15 14
25 24 21 21 18 19 17 16 18 16 17 16 14 16 15 21 19 19 18 17 13 10 9 7 8 4 4 7 9 14 16 15 16 17 17 17 18 15 16 18 18 18 18
29 29 27 26 23 22 20 19 19 21 19 17 15 14 12 16 21 24 20 17 16 15 15 13 11 12 13 13 14 15 17 18 17 19 19 21 20 20 22 22 21 20 23
35 34 31 29 26 26 25 23 22 23 25 24 18 15 14 17 19 21 21 21 17 16 17 16 15 16 18 15 16 18 17 18 22 22 21 19 20 22 23 24 22 24 23
43 40 35 34 34 30 28 27 26 25 27 24 23 19 15 18 21 19 17 19 19 18 14 16 18 19 20 19 20 22 18 20 21 17 19 23 26 25 25 26 26 26 24
44 45 44 41 36 33 33 32 30 29 28 26 26 21 20 22 21 21 21 21 18 18 16 19 16 21 20 21 24 26 27 25 28 26 24 22 21 23 26 29 32 32 31
47 45 43 43 40 38 37 36 34 32 31 28 27 28 21 20 21 19 18 20 23 21 24 25 22 22 23 24 25 23 22 22 23 20 19 21 22 21 22 20 18 18 17
45 46 48 45 44 41 38 38 35 36 35 31 28 30 26 21 21 21 21 25 25 24 25 25 22 25 26 20 21 19 21 22 22 22 24 22 19 19 18 17 16 16 17
44 44 46 45 43 41 39 37 35 36 37 29 27 30 27 23 21 23 25 26 28 24 25 21 20 22 26 22 21 21 23 23 24 23 25 29 24 26 24 20 20 22 26
42 41 39 39 40 40 36 32 34 35 32 30 24 26 30 24 23 22 24 28 27 25 22 17 22 22 24 21 21 21 22 24 25 24 26 32 27 27 25 24 25 27 25
39 38 34 33 33 31 27 25 27 31 30 26 24 23 27 25 21 21 23 24 22 22 21 21 22 23 20 20 21 22 21 24 24 23 25 22 23 27 26 25 27 26 23
34 33 31 30 29 26 22 24 26 29 27 19 22 24 25 25 21 18 24 22 23 23 22 22 21 18 19 20 21 23 21 20 22 20 21 23 23 23 29 29 26 24 27

GFSMA_850_spd_030.txt.gz
Wind_Speed
6 7 5 5 3 1 1 3 3 5 2 6 4 3 3 6 1 2 3 2 4 4 3 6 5 4 6 6 7 5 5 6 6 5 6 6 4 4 4 3 4 4 3
5 5 4 4 4 3 2 3 5 6 3 1 4 4 3 2 1 3 2 2 2 5 2 3 5 6 4 7 9 7 6 5 5 7 6 6 6 6 5 5 5 5 6
7 4 4 6 6 5 4 5 6 4 4 6 4 4 3 3 3 2 2 2 2 4 4 2 2 4 7 6 8 9 7 6 5 6 7 8 9 7 7 6 6 6 6
9 7 4 4 7 7 5 7 7 9 7 8 4 3 2 6 1 4 4 4 2 1 4 5 3 1 2 6 9 9 10 8 8 6 6 7 8 9 8 8 9 8 9
10 9 6 6 6 6 7 7 9 5 2 4 7 8 7 4 8 4 5 3 3 2 1 3 3 2 2 2 4 6 10 11 10 10 10 10 8 7 8 9 10 10 10
11 10 8 8 7 8 8 7 6 4 4 8 2 5 4 1 5 3 3 2 2 3 2 3 3 3 4 4 4 5 6 9 13 14 13 12 13 10 10 10 11 12 12
12 11 11 9 8 9 9 7 5 6 6 4 4 5 6 5 4 4 5 3 3 4 3 3 2 3 3 1 4 2 4 6 7 9 10 13 12 12 13 14 15 14 14
13 12 13 10 10 10 10 8 6 8 10 8 7 7 7 6 7 7 4 3 4 7 6 5 3 2 2 1 3 3 3 2 4 4 5 6 9 11 11 13 13 14 14
15 13 14 13 13 12 11 10 9 8 6 10 11 7 6 5 10 9 8 4 3 7 8 8 9 8 7 5 4 5 5 4 3 2 2 3 5 7 9 11 12 12 13
18 15 13 15 14 13 12 11 11 9 9 10 11 13 8 5 8 7 11 9 7 5 5 4 5 7 9 9 9 8 8 6 8 9 8 7 6 6 7 8 8 9 10
23 20 19 16 16 15 13 12 13 11 11 12 11 8 6 6 10 7 12 14 11 9 6 4 3 2 3 4 5 7 8 8 8 9 10 11 10 8 7 8 9 9 9
24 22 20 19 19 18 15 14 13 13 10 14 12 10 9 9 9 10 10 14 15 11 10 9 7 6 5 3 2 1 2 4 5 8 10 12 10 9 8 7 7 8 9
28 26 24 23 22 19 15 16 15 14 12 12 14 12 10 8 7 9 9 9 10 9 7 7 11 11 9 11 9 8 6 5 6 7 9 9 7 9 8 8 8 8 9
28 28 25 24 22 19 16 15 16 14 13 13 13 13 11 10 9 8 8 8 8 8 10 9 7 10 14 15 12 11 12 11 9 9 9 8 7 9 9 10 10 11 11
27 28 25 24 21 19 18 18 17 15 15 14 13 15 15 13 12 11 11 10 10 10 8 6 8 6 5 6 7 8 10 11 11 10 9 10 11 13 13 14 13 15 17
28 31 29 27 24 22 21 21 19 16 17 16 15 15 16 15 15 15 13 12 10 10 10 8 4 5 5 4 4 5 6 8 10 12 13 14 14 15 18 18 19 19 18
31 31 33 29 26 25 24 24 22 19 18 18 16 16 15 15 17 16 17 15 13 12 12 12 11 9 9 7 8 9 10 11 14 14 15 16 17 19 20 19 19 21 23
32 31 34 33 30 28 25 25 23 22 20 19 19 18 19 17 16 16 16 15 14 13 13 13 13 11 11 12 12 10 11 13 14 14 15 18 18 19 22 24 25 27 26
34 36 35 37 34 32 28 25 24 23 22 20 19 20 19 22 20 18 16 16 14 15 16 16 15 15 15 13 13 14 14 16 18 18 17 19 21 22 21 20 21 23 25
37 38 40 40 37 35 31 28 28 27 25 24 22 20 20 23 25 20 17 16 16 17 18 18 18 17 17 16 16 19 23 20 19 15 17 18 15 14 16 19 20 20 22
41 39 42 42 42 38 36 34 31 29 27 25 25 24 23 23 23 24 21 19 18 18 19 19 20 20 21 22 21 21 21 20 22 18 18 18 18 20 21 19 20 20 20
45 43 43 46 45 43 40 37 33 31 29 27 27 26 28 26 22 23 25 22 20 20 20 19 19 20 19 20 20 15 16 19 21 18 18 21 22 23 23 22 20 20 20
46 48 45 45 49 46 43 40 36 34 33 32 28 27 29 28 21 22 23 26 23 20 22 20 20 18 18 14 14 15 17 18 18 19 22 25 23 24 20 18 17 21 23
48 48 49 47 47 48 46 43 37 36 36 33 31 29 28 25 21 22 24 26 25 21 20 19 18 15 17 17 18 19 18 17 18 20 21 24 21 20 18 21 23 23 22
51 50 50 49 48 45 44 41 39 41 39 36 31 28 24 21 20 22 24 26 24 21 18 17 14 15 18 18 18 17 15 17 19 19 18 18 19 23 24 25 21 19 18
53 52 51 51 49 46 43 37 40 42 41 36 29 27 24 21 20 22 24 26 25 21 17 16 16 16 17 16 15 13 13 15 14 15 13 16 21 24 19 21 18 21 19

GFSMA_850_spd_033.txt.gz
Wind_Speed
6 5 4 4 4 1 1 4 5 5 4 6 3 4 4 4 1 3 4 3 4 2 3 6 4 4 6 6 5 5 5 5 5 5 5 5 4 3 3 3 3 3 3
6 4 4 4 3 3 3 2 4 6 1 3 3 4 3 1 2 4 2 2 3 6 3 2 5 4 5 6 6 5 4 3 4 5 5 6 6 4 4 4 4 4 4
5 4 3 5 5 6 5 4 5 5 6 5 1 5 3 2 2 3 1 3 3 5 6 3 1 4 6 5 6 6 5 5 5 5 6 7 7 6 6 6 6 6 5
6 6 4 3 5 7 6 5 6 8 6 5 3 0 1 2 2 6 5 5 3 2 4 6 5 3 1 4 7 5 6 9 7 5 4 6 8 8 8 6 7 8 8
8 8 6 5 5 6 5 7 8 6 2 3 3 4 4 5 6 5 4 3 3 3 2 4 5 4 2 2 1 5 8 10 10 8 8 9 8 7 9 9 9 8 8
13 12 10 7 7 6 6 7 8 4 3 6 2 4 4 4 7 5 3 3 3 3 1 2 3 1 3 2 1 2 4 6 9 12 11 11 12 12 12 9 9 9 9
13 11 11 9 7 6 8 7 6 3 4 4 2 4 4 4 4 5 5 5 4 4 3 2 1 1 3 3 4 2 1 4 5 6 7 8 11 11 13 12 12 14 12
14 14 12 11 9 8 9 7 6 5 7 5 4 4 3 2 4 4 2 3 4 5 5 5 2 2 0 1 2 2 1 1 1 3 3 3 4 6 8 9 11 13 11
16 14 13 14 11 10 10 8 8 6 7 5 6 3 3 3 5 7 4 3 4 6 7 8 9 8 6 4 5 6 5 5 5 4 3 2 3 5 6 7 8 9 11
18 15 14 14 14 12 11 10 9 7 6 6 6 7 7 4 5 5 8 7 6 5 5 5 6 7 7 8 8 8 7 9 10 10 9 8 7 6 6 7 6 6 7
23 22 17 16 15 13 12 11 10 8 7 8 8 4 6 9 9 6 6 8 11 9 6 4 3 3 3 4 5 6 8 6 7 6 8 9 9 9 8 7 7 7 7
27 26 24 20 18 17 14 12 12 11 9 9 10 8 7 5 6 7 7 9 10 10 11 9 9 7 7 6 4 2 0 1 2 5 7 8 8 7 7 8 8 8 9
24 25 24 23 20 17 16 14 14 13 11 10 12 10 9 8 6 8 7 7 7 12 12 10 10 13 11 10 10 9 8 7 5 5 6 7 8 6 7 7 8 9 10
24 24 25 22 21 19 18 16 15 15 13 13 12 13 11 9 8 7 7 6 5 6 8 8 8 9 13 14 16 15 13 12 11 10 9 9 9 9 11 12 12 12 12
27 26 26 27 24 22 21 18 16 15 15 15 15 14 14 12 11 10 9 9 7 6 6 6 6 8 9 9 10 12 13 12 14 15 13 13 12 11 12 14 16 17 18
29 29 28 27 26 24 22 21 19 17 18 17 17 16 16 16 15 14 13 12 12 10 9 8 7 6 7 9 9 8 10 12 14 14 13 15 15 16 16 17 18 19 19
31 31 31 29 29 27 26 24 22 20 21 20 19 19 18 17 17 17 15 15 14 13 12 10 10 10 11 11 11 12 13 13 14 15 16 16 17 17 18 19 18 20 20
33 31 32 33 33 31 30 27 26 25 25 23 22 21 20 21 20 18 18 17 18 18 14 12 11 12 12 14 14 14 14 13 14 15 18 18 18 17 20 21 20 21 22
36 35 33 36 35 36 34 31 29 27 27 26 23 22 22 23 23 23 20 18 17 17 16 13 11 13 15 15 15 15 17 18 19 19 17 17 17 17 18 20 19 19 19
39 37 37 35 36 38 38 35 33 31 30 29 27 24 24 24 24 25 24 21 19 19 19 17 14 12 14 14 16 18 18 22 16 21 21 19 18 17 16 18 20 20 21
42 40 40 38 38 39 41 40 38 36 34 32 30 29 28 26 25 25 26 26 23 21 19 18 15 14 14 14 15 13 15 16 20 18 17 12 12 12 14 19 21 21 20
44 44 44 42 41 43 44 43 41 41 38 35 34 32 31 29 28 28 26 27 27 25 24 19 17 16 16 16 13 11 14 16 13 14 14 11 14 15 15 17 20 21 18
45 47 46 46 46 45 47 46 45 43 42 40 38 35 34 32 30 31 27 27 28 28 25 21 21 19 17 15 14 14 14 14 16 13 16 15 14 17 16 15 18 20 23
47 49 49 48 48 47 48 48 46 44 46 44 41 38 36 33 30 31 28 29 30 30 28 22 21 19 17 17 15 16 18 19 16 14 15 14 15 15 15 16 21 21 20
48 50 50 49 49 49 49 47 45 46 49 48 44 42 39 36 32 30 30 31 31 29 26 21 19 19 18 16 16 16 16 11 11 12 12 11 12 14 17 18 14 15 18
47 48 50 51 51 49 49 48 44 43 48 50 49 45 42 39 33 30 30 31 32 30 26 22 21 19 18 16 16 16 13 10 11 10 8 9 13 15 17 16 13 17 15

GFSMA_850_spd_036.txt.gz
Wind_Speed
4 4 3 3 2 1 1 2 5 4 5 5 3 5 5 4 4 3 0 4 6 3 4 6 6 6 6 5 4 5 4 5 4 4 4 3 3 2 3 3 3 3 3
5 6 3 2 1 2 0 1 1 2 2 2 2 6 2 2 3 3 2 2 5 6 3 3 6 5 6 5 5 4 4 5 5 5 4 5 5 5 4 4 4 4 5
6 4 2 2 3 4 2 0 3 5 3 1 3 6 5 5 4 2 4 3 3 7 6 4 3 5 6 6 5 5 5 5 4 5 6 5 6 6 6 5 5 5 5
6 3 1 1 3 2 2 1 1 3 4 1 3 3 1 1 5 6 5 4 4 1 5 5 5 4 4 6 7 7 7 7 6 6 5 5 5 6 7 7 7 8 8
7 5 4 4 3 5 1 1 2 3 2 2 0 1 1 1 4 6 6 5 3 4 3 3 4 3 3 3 5 8 9 10 10 9 6 8 6 6 6 6 8 8 8
11 9 7 7 2 1 3 1 3 2 2 2 1 4 4 5 5 5 5 4 1 4 5 2 3 2 2 0 2 5 6 8 10 10 10 10 9 9 9 8 8 8 9
12 11 9 8 5 1 1 1 2 2 2 3 6 6 4 6 5 5 5 5 5 4 2 2 2 3 2 2 1 1 5 6 7 7 6 7 8 10 9 10 10 10 11
14 12 11 9 6 4 3 1 0 1 1 2 4 4 7 7 5 4 3 3 5 4 3 3 2 3 3 1 2 2 3 3 3 4 4 3 4 5 6 7 9 12 13
17 13 13 10 10 5 4 4 2 1 1 2 7 2 3 5 7 5 4 3 3 3 3 4 5 4 5 4 4 3 3 3 3 2 1 1 2 3 4 5 7 8 11
18 16 13 11 12 7 8 5 4 4 2 3 4 6 5 2 5 7 5 6 5 3 3 2 2 3 4 3 5 4 5 7 6 5 4 4 5 4 3 3 4 5 7
20 17 16 14 13 9 10 9 7 5 5 6 4 4 5 6 6 5 6 7 7 8 6 5 3 2 3 3 2 4 4 4 3 3 6 8 7 6 5 5 5 5 6
19 23 19 20 17 14 12 9 9 9 8 8 8 7 5 5 6 7 7 6 7 8 9 8 8 7 7 7 7 7 4 3 2 2 5 7 7 6 6 6 6 7 7
19 20 24 25 20 17 15 13 12 12 12 11 9 8 8 7 7 8 7 5 6 8 7 9 10 11 11 11 10 11 10 9 8 7 7 8 9 9 9 9 10 11 11
19 18 20 22 22 20 18 17 14 13 15 15 13 13 9 8 8 7 6 6 5 7 8 8 8 9 11 11 12 16 14 15 13 13 13 12 12 12 11 11 13 14 15
20 20 20 21 21 21 21 19 15 16 17 17 16 15 14 10 10 9 9 8 8 8 7 7 7 8 7 8 11 11 11 14 14 16 17 16 15 15 15 15 15 16 18
28 23 23 23 23 23 24 23 19 20 20 20 19 20 18 14 13 12 11 10 10 9 9 7 6 9 7 7 8 10 9 13 14 15 16 17 18 18 18 19 19 19 18
35 31 30 25 25 25 26 27 24 21 23 23 23 23 23 21 16 14 14 12 12 12 12 9 9 11 11 10 9 9 10 11 11 15 16 18 19 20 20 19 21 21 21
38 35 33 31 30 28 27 30 29 25 28 27 27 27 25 22 24 22 16 17 14 14 13 12 11 10 10 12 12 15 10 10 12 15 18 18 21 21 19 18 18 18 18
40 38 36 36 34 33 33 33 33 32 31 30 29 29 27 26 25 21 22 18 15 15 14 13 11 10 11 11 11 11 12 11 13 16 18 17 18 19 19 18 19 18 18
43 41 41 39 37 35 36 37 37 36 35 34 33 32 30 29 27 25 25 24 19 16 14 14 14 15 13 12 12 13 15 14 15 12 17 15 15 19 18 17 18 19 20
45 44 43 42 40 38 37 42 43 41 40 38 36 36 34 32 29 27 26 25 22 20 17 17 17 16 16 15 16 13 14 14 14 15 12 10 13 12 16 19 20 19 17
47 46 47 47 45 43 40 42 44 46 45 42 40 38 35 34 33 31 28 26 26 26 26 21 19 19 18 17 16 15 14 14 14 8 11 11 11 15 16 17 20 22 26
48 48 49 50 50 48 47 44 45 47 46 45 45 42 34 31 35 34 32 30 30 30 27 23 24 21 18 18 17 15 15 14 13 13 13 14 12 16 17 16 20 22 23
49 49 49 52 51 51 50 48 44 44 47 43 42 44 42 36 36 35 34 34 34 34 30 32 26 22 21 18 18 15 14 15 14 13 13 13 13 15 15 14 19 22 24
39 43 40 47 53 53 51 49 47 46 47 51 50 48 46 44 41 39 34 31 32 34 31 30 30 26 24 22 19 13 14 11 12 12 12 13 12 13 14 16 14 18 21
34 33 37 44 51 54 53 51 49 49 49 48 49 51 51 50 45 43 38 37 32 32 28 24 28 30 28 25 24 20 15 13 13 13 13 12 13 13 15 14 12 17 15